Weather History for Mountain Home, AR

Change the Weather History Date:

Sunday, February 3, 2013

  Actual Average (KHRO) Record (KHRO)
Temperature  
Mean Temperature 46 °F 38 °F  
Max Temperature 53 °F 48 °F 79 °F (1962)
Min Temperature 39 °F 28 °F -3 °F (1996)
Degree Days  
Heating Degree Days 19 27  
Month to date heating degree days 81  
Since 1 July heating degree days 2567  
Cooling Degree Days 0 0  
Month to date cooling degree days 0  
Year to date cooling degree days 0  
Moisture  
Dew Point 23 °F    
Average Humidity 44    
Maximum Humidity 65    
Minimum Humidity 25    
Precipitation  
Precipitation 0.00 in 0.08 in 1.24 in (2012)
Month to date precipitation 0.26  
Year to date precipitation 2.82  
Snow  
Snow 0.00 in 0.20 in 7.00 in (1905)
Month to date snowfall 0.6  
Since 1 July snowfall 6.6  
Snow Depth -    
Sea Level Pressure  
Sea Level Pressure 30.15 in    
Wind  
Wind Speed 5 mph (West)    
Max Wind Speed 12 mph    
Max Gust Speed 21 mph    
Visibility 10 miles    
Events      
T = Trace of Precipitation, MM = Missing Value Source: NWS Daily Summary

Daily Weather History Graph

Daily Weather History Graph

Search for Another Location

Airport:

Trip Planner

Search our weather history database for the weather conditions in past years. The results will help you decide how hot, cold, wet, or windy it might be!

Date:

Astronomy

Feb. 03, 2013 Rise Set
Actual Time 7:09 AM CST 5:38 PM CST
Civil Twilight 6:42 AM CST 6:05 PM CST
Nautical Twilight 6:11 AM CST 6:36 PM CST
Astronomical Twilight 5:41 AM CST 7:06 PM CST
Moon 12:37 AM CST (2/3) 11:17 AM CST (2/3)
Length of Visible Light 11h 23m
Length of Day
10h 29m
Waning Gibbous, 48% of the Moon is Illuminated
Feb 3
Waning Gibbous
Feb 10
New
Feb 17
First Quarter
Feb 25
Full
Mar 4
Last Quarter

Hourly Weather History & Observations

Time (CST) Temp. Windchill Dew Point Humidity Pressure Visibility Wind Dir Wind Speed Gust Speed Precip Events Conditions
12:53 AM 42.1 °F 40.2 °F 28.0 °F 58% 30.13 in 10.0 mi WSW 3.5 mph - N/A   Clear
1:53 AM 42.1 °F 39.2 °F 28.0 °F 58% 30.11 in 10.0 mi SW 4.6 mph - N/A   Clear
2:53 AM 46.0 °F 43.1 °F 28.0 °F 50% 30.13 in 10.0 mi Variable 5.8 mph 18.4 mph N/A   Clear
3:53 AM 43.0 °F 39.5 °F 28.0 °F 56% 30.13 in 10.0 mi WNW 5.8 mph - N/A   Clear
4:53 AM 41.0 °F 39.0 °F 28.0 °F 60% 30.15 in 10.0 mi NW 3.5 mph - N/A   Clear
5:53 AM 39.9 °F 37.8 °F 28.0 °F 63% 30.16 in 10.0 mi Variable 3.5 mph - N/A   Clear
6:53 AM 39.0 °F 35.7 °F 28.0 °F 65% 30.17 in 10.0 mi Variable 4.6 mph - N/A   Clear
7:53 AM 39.9 °F 33.9 °F 28.0 °F 63% 30.19 in 10.0 mi NW 9.2 mph - N/A   Clear
8:53 AM 41.0 °F 35.8 °F 26.1 °F 55% 30.22 in 10.0 mi NW 8.1 mph 17.3 mph N/A   Clear
9:53 AM 44.1 °F 39.5 °F 26.1 °F 49% 30.24 in 10.0 mi NW 8.1 mph - N/A   Clear
10:53 AM 46.0 °F 42.5 °F 19.9 °F 35% 30.25 in 10.0 mi Variable 6.9 mph 20.7 mph N/A   Clear
11:53 AM 48.9 °F - 18.0 °F 29% 30.23 in 10.0 mi NW 9.2 mph 19.6 mph N/A   Clear
12:53 PM 51.1 °F - 17.1 °F 26% 30.20 in 10.0 mi NNW 11.5 mph 17.3 mph N/A   Clear
1:53 PM 53.1 °F - 18.0 °F 25% 30.18 in 10.0 mi NW 8.1 mph - N/A   Clear
2:53 PM 52.0 °F - 18.0 °F 26% 30.17 in 10.0 mi NW 4.6 mph - N/A   Clear
3:53 PM 52.0 °F - 17.1 °F 25% 30.15 in 10.0 mi West 3.5 mph - N/A   Clear
4:53 PM 51.1 °F - 16.0 °F 25% 30.13 in 10.0 mi Calm Calm - N/A   Clear
5:53 PM 46.0 °F - 21.0 °F 37% 30.12 in 10.0 mi Calm Calm - N/A   Clear
6:53 PM 45.0 °F 43.5 °F 19.0 °F 36% 30.12 in 10.0 mi South 3.5 mph - N/A   Clear
7:53 PM 43.0 °F 40.3 °F 19.0 °F 38% 30.09 in 10.0 mi SE 4.6 mph - N/A   Clear
8:53 PM 42.1 °F 38.4 °F 21.0 °F 43% 30.09 in 10.0 mi South 5.8 mph - N/A   Clear
9:53 PM 42.1 °F 38.4 °F 19.9 °F 41% 30.08 in 10.0 mi South 5.8 mph - N/A   Clear
10:53 PM 43.0 °F 38.8 °F 19.9 °F 40% 30.04 in 10.0 mi South 6.9 mph - N/A   Clear
11:53 PM 39.9 °F 35.8 °F 21.0 °F 47% 30.03 in 10.0 mi South 5.8 mph - N/A   Clear